Regional Weather Roundup
Issued by NWS

Home | Current Version | Previous Version | Text Only | Print | Product List | Glossary On
Versions: 1 2 3 4 5 6 7 8 9 10 11 12 13 14 15 16 17 18 19 20 21 22 23 24 25 26 27 28 29 30 31 32 33 34 35 36 37 38 39 40 41 42 43 44 45 46 47 48 49 50
429
ASUS45 KBOU 291107
RWRCO

WEATHER ROUNDUP FOR COLORADO
NATIONAL WEATHER SERVICE DENVER/BOULDER CO
500 AM MDT MON MAY 29 2017

NOTE: "FAIR" INDICATES FEW OR NO CLOUDS BELOW 12000 FEET WITH NO
SIGNIFICANT WEATHER AND/OR OBSTRUCTIONS TO VISIBILITY.

COZ001>005-013-030-031-291200-
...NORTHWEST COLORADO...

CITY           SKY/WX    TMP DP  RH WIND       PRES   REMARKS
CRAIG          FAIR      34  30  85 CALM      30.27S
HAYDEN         FAIR      36  28  75 SE6       30.27S
MEEKER         FAIR      37  30  75 SE5       30.27R
RABBIT EARS PA FAIR      36  27  69 SE5       30.42S
STEAMBOAT SPGS FAIR      34  32  92 CALM      30.29S
WALDEN           N/A     30  27  86 S3        30.36S
$$

COZ006>008-011-291200-
...WEST CENTRAL VALLEYS...

CITY           SKY/WX    TMP DP  RH WIND       PRES   REMARKS
GRAND JUNCTION FAIR      52  29  41 SE13      30.16S
MONTROSE       FAIR      47  22  37 SE9       30.23R
EAGLE          FAIR      37  30  75 CALM      30.32S
RIFLE          FAIR      44  28  53 SE3       30.23S
DELTA          FAIR      47  28  47 NE5       30.20R
NUCLA          FAIR      45  21  39 E7        30.25R
$$

COZ017>023-064>068-291200-
...SOUTHWEST COLORADO...

CITY           SKY/WX    TMP DP  RH WIND       PRES   REMARKS
DURANGO        FAIR      36  20  52 CALM      30.22F
CORTEZ         FAIR      35  27  72 CALM      30.20S
PAGOSA SPRINGS FAIR      35  17  49 CALM      30.29S
TELLURIDE      FAIR      38  20  47 E6        30.37S
WOLF CREEK PAS FAIR      34  12  40 CALM      30.52S
$$

COZ009-010-012-014-032>034-037-058>063-291200-
...CENTRAL COLORADO...

CITY           SKY/WX    TMP DP  RH WIND       PRES   REMARKS
ASPEN          FAIR      35  28  75 SW7       30.31S WCI  29
BUENA VISTA    FAIR      36  26  68 NW6       30.35S
COPPER MTN     FAIR      36  23  60 SW9       30.48S
BERTHOUD PASS  FAIR      28  18  64 W16       30.49S WCI  17
COTTONWOOD PAS FAIR      43  23  45 W5        30.41S
GUNNISON       FAIR      31  28  89 CALM      30.34S
KREMMLING      FAIR      37  34  87 N3        30.35R
LEADVILLE      FAIR      28  21  75 CALM      30.39F
MONARCH PASS   FAIR      32  27  80 E13       30.58S WCI  22
SALIDA         FAIR      41  28  60 W5        30.41S
SUNLIGHT       FAIR      34  23  64 E3        30.46S
WILKERSON PASS FAIR      32  25  74 SW6       30.48F WCI  26
$$

COZ069>075-291200-
...SAN LUIS VALLEY/SANGRE DE CRISTO MOUNTAINS...

CITY           SKY/WX    TMP DP  RH WIND       PRES   REMARKS
ALAMOSA        FAIR      36  33  89 E7        30.28S
DEL NORTE      FAIR      39  20  46 W14       30.31F
LA VETA PASS   FAIR      39  27  60 CALM      30.52R
SAGUACHE       FAIR      37  21  52 N9        30.31S
$$

COZ035-036-038>040-291200-
...NORTHERN COLORADO FRONT RANGE...

CITY           SKY/WX    TMP DP  RH WIND       PRES   REMARKS
DENVER INTL AP MOCLDY    47  42  83 SW7       30.26F
DMNS CITY PARK   N/A     48  41  76 E8        30.26S
AURORA         MOCLDY    45  40  82 S5        30.27F
FRONT RANGE AP FAIR      48  43  81 SW7       30.27F
ERIE MUNI ARPT FAIR      45  43  94 CALM      30.26S
BOULDER MUN AP FAIR      46  45  93 NW3       30.25F
CENTENNIAL     FAIR      43  40  89 S3        30.27F
BROOMFIELD     FAIR      45  41  87 W3        30.27S
FORT COLLINS   FAIR      49  41  74 N3        30.25F
LONGMONT       FAIR      46  41  84 W5        30.27F
$$

COZ041-046-047-076>085-087-088-291200-
...PIKES PEAK/PALMER DIVIDE AND SOUTHERN FOOTHILLS...

CITY           SKY/WX    TMP DP  RH WIND       PRES   REMARKS
COLO. SPRINGS  FAIR      48  38  68 NW7       30.29F
A. F. ACADEMY  FAIR      40  36  86 N8        30.29F
SCHRIEVER AFB  FAIR      47  37  66 N13       30.28F
CHEYENNE MTN   FAIR      49  33  54 NW10      30.25F
ELLICOTT       FAIR     N/A N/A N/A N7        30.26F
FALCON         FAIR      44  36  72 N7        30.31F
FORT CARSON    FAIR      45  36  69 NW7       30.26F
LIMON          FAIR      44  42  93 NW7       30.25S
MONUMENT HILL  FAIR      37  34  87 SW7       30.32F
CANON CITY     NOT AVBL
WALSENBURG     FAIR      45  39  81 NW6       30.29R
TRINIDAD       FAIR      42  35  76 W8        30.25S
$$

COZ042>045-048>051-090-091-291200-
...NORTHEAST COLORADO...

CITY           SKY/WX    TMP DP  RH WIND       PRES   REMARKS
GREELEY ARPT   FAIR      47  44  90 NW6       30.24
AKRON          FAIR      46  41  82 W9        30.22F
BURLINGTON     FAIR      51  45  79 NW10      30.18S
WRAY           MOCLDY    45  45 100 W6        30.17S
YUMA           FAIR      45  36  70 W9        30.20R
STERLING       NOT AVBL
HOLYOKE        NOT AVBL
FORT MORGAN    FAIR      47  41  80 NW9       30.23F
$$

COZ086-089-092>099-291200-
...SOUTHEAST COLORADO...

CITY           SKY/WX    TMP DP  RH WIND       PRES   REMARKS
PUEBLO         FAIR      53  40  61 W9        30.23S
LA JUNTA       FAIR      54  43  66 N3        30.20F
LAMAR          FAIR      44  41  89 S5        30.17S
SPRINGFIELD      N/A     52  46  80 N3        30.20F
$$




USA.gov is the U.S. government's official web portal to all federal, state and local government web resources and services.